TimeCDT,TemperatureF,Dew PointF,Humidity,Sea Level PressureIn,VisibilityMPH,Wind Direction,Wind SpeedMPH,Gust SpeedMPH,PrecipitationIn,Events,Conditions,WindDirDegrees,DateUTC
12:53 AM,66.9,63.0,87,29.68,8.0,SE,9.2,-,N/A,,Clear,140,2012-10-25 05:53:00
1:53 AM,64.9,63.0,93,29.67,8.0,SE,9.2,-,N/A,,Clear,130,2012-10-25 06:53:00
2:53 AM,66.0,63.0,90,29.67,10.0,SSE,10.4,-,N/A,,Clear,150,2012-10-25 07:53:00
3:53 AM,63.0,62.1,97,29.66,8.0,South,12.7,-,N/A,,Clear,170,2012-10-25 08:53:00
4:53 AM,61.0,60.1,97,29.67,6.0,SSE,3.5,-,N/A,,Clear,160,2012-10-25 09:53:00
5:53 AM,60.1,57.0,90,29.68,10.0,South,6.9,-,N/A,,Clear,190,2012-10-25 10:53:00
6:53 AM,55.0,53.1,93,29.72,10.0,ESE,4.6,-,N/A,,Clear,120,2012-10-25 11:53:00
7:53 AM,54.0,52.0,93,29.76,10.0,ENE,4.6,-,N/A,,Clear,60,2012-10-25 12:53:00
8:53 AM,55.0,53.1,93,29.82,7.0,North,8.1,-,N/A,,Clear,350,2012-10-25 13:53:00
9:53 AM,64.0,57.9,80,29.86,10.0,North,8.1,-,N/A,,Clear,10,2012-10-25 14:53:00
10:53 AM,66.0,45.0,47,29.91,10.0,NE,18.4,24.2,N/A,,Clear,40,2012-10-25 15:53:00
11:53 AM,68.0,45.0,43,29.92,10.0,NNE,17.3,25.3,N/A,,Clear,30,2012-10-25 16:53:00
12:53 PM,70.0,45.0,41,29.93,10.0,NNE,17.3,25.3,N/A,,Clear,30,2012-10-25 17:53:00
1:53 PM,72.0,44.1,37,29.91,10.0,NNE,16.1,25.3,N/A,,Clear,20,2012-10-25 18:53:00
2:53 PM,73.0,39.0,29,29.89,10.0,NNE,13.8,25.3,N/A,,Clear,20,2012-10-25 19:53:00
3:53 PM,72.0,35.1,26,29.90,10.0,NNE,16.1,23.0,N/A,,Clear,30,2012-10-25 20:53:00
4:53 PM,73.0,36.0,26,29.90,10.0,NE,12.7,-,N/A,,Clear,50,2012-10-25 21:53:00
5:53 PM,71.1,36.0,28,29.91,10.0,NE,8.1,-,N/A,,Clear,50,2012-10-25 22:53:00
6:53 PM,68.0,39.0,35,29.94,10.0,ENE,9.2,-,N/A,,Clear,60,2012-10-25 23:53:00
7:53 PM,63.0,41.0,45,29.97,10.0,ENE,9.2,-,N/A,,Clear,60,2012-10-26 00:53:00
8:53 PM,61.0,41.0,48,29.99,10.0,ENE,10.4,-,N/A,,Clear,70,2012-10-26 01:53:00
9:53 PM,57.9,39.0,49,30.01,10.0,ENE,11.5,-,N/A,,Clear,70,2012-10-26 02:53:00
10:53 PM,55.9,37.0,49,30.03,10.0,East,10.4,-,N/A,,Clear,80,2012-10-26 03:53:00
11:53 PM,53.6,35.6,51,30.14,10.0,East,13.8,-,N/A,,Clear,80,2012-10-26 04:53:00